Tracking 26492 objects as of 7-Dec-2022
HD Live streaming from Space Station
objects crossing your sky now

NOAA 16 DEB

Track NOAA 16 DEB now!
10-day predictions


NORAD ID: 41203
Int'l Code: 2000-055DG
Perigee: 840.2 km
Apogee: 894.9 km
Inclination: 98.8 °
Period: 102.1 minutes
Semi major axis: 7238 km
RCS: Unknown
Launch date: September 21, 2000
Source: United States (US)
Launch site: AIR FORCE WESTERN TEST RANGE (AFWTR)

Note: This is SATELLITE DEBRIS
aabbcc
Your satellite tracking list
Your tracking list is empty




NASA's NSSDC Master Catalog

Two Line Element Set (TLE):
1 41203U 00055DG  22340.38000549  .00001895  00000-0  10976-2 0  9998
2 41203  98.7643  31.3883 0037740 206.1283 153.7984 14.09701199359553
Source of the keplerian elements: AFSPC